This demonstration page uses our WeatherBlox Daily Observations layout. Learn more.

Left ArrowRight Arrow

39.01783, -85.05884

Hourly Observations for August 1, 2017

Temp ( °F °C ) Dew Point ( °F °C ) Humidity (%) Winds ( mph kmh ) Pressure ( in mb ) Visibility ( mi km ) Precip ( " mm )
12:52 am 00:52 Mostly Cloudy 73 22.8 63 17.2 71 71 E 5 7 30.09 1019 10 16 0.00 0.00
1:52 am 01:52 Mostly Cloudy 71 21.7 63 17.2 76 76 ESE 6 9 30.09 1019 10 16 0.00 0.00
2:52 am 02:52 Cloudy 71 21.7 63 17.2 76 76 E 5 7 30.08 1019 10 16 0.00 0.00
3:52 am 03:52 Cloudy 72 22.2 63 17.2 73 73 ENE 5 7 30.09 1019 10 16 0.00 0.00
4:52 am 04:52 Cloudy 70 21.1 64 17.8 82 82 E 6 9 30.09 1019 10 16 0.00 0.00
5:52 am 05:52 Cloudy 68 20 64 17.8 87 87 ESE 3 6 30.09 1019 10 16 0.00 0.00
6:52 am 06:52 Mostly Cloudy 69 20.6 64 17.8 84 84 E 5 7 30.10 1019 10 16 0.00 0.00
7:52 am 07:52 Cloudy 70 21.1 65 18.3 84 84 SE 3 6 30.10 1019 10 16 0.00 0.00
8:52 am 08:52 Cloudy 72 22.2 65 18.3 79 79 E 5 7 30.12 1020 10 16 0.00 0.00
9:52 am 09:52 Cloudy 74 23.3 65 18.3 74 74 ESE 5 7 30.11 1020 10 16 0.00 0.00
10:52 am 10:52 Cloudy 77 25 65 18.3 66 66 SE 7 11 30.11 1020 10 16 0.00 0.00
11:52 am 11:52 Cloudy 79 26.1 64 17.8 60 60 SSE 9 15 30.10 1019 10 16 0.00 0.00
12:52 pm 12:52 Cloudy 80 26.7 65 18.3 60 60 SSE 5 7 30.10 1019 10 16 0.00 0.00
1:52 pm 13:52 Cloudy 81 27.2 67 19.4 62 62 S 7 11 30.09 1019 10 16 0.00 0.00
2:52 pm 14:52 Mostly Cloudy 82 27.8 68 20 63 63 SSW 9 15 30.08 1019 10 16 0.00 0.00
3:52 pm 15:52 Cloudy 82 27.8 66 18.9 58 58 S 5 7 30.06 1018 10 16 0.00 0.00
4:52 pm 16:52 Mostly Cloudy 81 27.2 66 18.9 61 61 SE 7 11 30.04 1017 10 16 0.00 0.00
5:52 pm 17:52 Cloudy with Nearby Thunderstorms 81 27.2 66 18.9 61 61 ESE 7 11 30.04 1017 10 16 0.00 0.00
6:01 pm 18:01 Cloudy 80 26.7 68 20 67 67 SSE 6 9 30.03 1017 10 16 0.00 0.00
6:52 pm 18:52 Mostly Cloudy 80 26.7 65 18.3 60 60 ESE 9 15 30.03 1017 10 16 0.00 0.00
7:52 pm 19:52 Mostly Cloudy 79 26.1 66 18.9 65 65 SSE 8 13 30.03 1017 10 16 0.00 0.00
8:52 pm 20:52 Mostly Cloudy 76 24.4 66 18.9 72 72 S 5 7 30.04 1017 10 16 0.00 0.00
9:52 pm 21:52 Mostly Cloudy 74 23.3 67 19.4 79 79 SSE 5 7 30.05 1018 10 16 0.00 0.00
10:52 pm 22:52 Mostly Clear 73 22.8 66 18.9 79 79 VRB 3 6 30.05 1018 10 16 0.00 0.00
11:52 pm 23:52 Mostly Cloudy 74 23.3 66 18.9 76 76 Calm 30.06 1018 10 16 0.00 0.00

Powered by AerisWeather